TimeCDT,TemperatureF,Dew PointF,Humidity,Sea Level PressureIn,VisibilityMPH,Wind Direction,Wind SpeedMPH,Gust SpeedMPH,PrecipitationIn,Events,Conditions,WindDirDegrees,DateUTC
12:54 AM,66.9,60.1,79,30.06,10.0,East,5.8,-,N/A,,Clear,100,2013-07-12 05:54:00
1:54 AM,66.0,59.0,78,30.06,10.0,East,5.8,-,N/A,,Clear,100,2013-07-12 06:54:00
2:54 AM,64.9,59.0,81,30.06,10.0,ESE,6.9,-,N/A,,Clear,110,2013-07-12 07:54:00
3:54 AM,64.0,59.0,84,30.06,10.0,ESE,3.5,-,N/A,,Clear,120,2013-07-12 08:54:00
4:54 AM,63.0,59.0,87,30.06,10.0,ESE,6.9,-,N/A,,Clear,110,2013-07-12 09:54:00
5:54 AM,62.1,57.9,86,30.08,10.0,East,5.8,-,N/A,,Clear,80,2013-07-12 10:54:00
6:54 AM,63.0,59.0,87,30.09,8.0,East,5.8,-,N/A,,Clear,100,2013-07-12 11:54:00
7:54 AM,66.9,60.1,79,30.10,10.0,ESE,9.2,-,N/A,,Clear,120,2013-07-12 12:54:00
8:54 AM,72.0,63.0,73,30.12,10.0,SSE,6.9,-,N/A,,Clear,150,2013-07-12 13:54:00
9:54 AM,75.0,60.1,60,30.12,10.0,SE,11.5,-,N/A,,Clear,130,2013-07-12 14:54:00
10:54 AM,77.0,60.1,56,30.11,10.0,SE,10.4,-,N/A,,Clear,130,2013-07-12 15:54:00
11:54 AM,79.0,57.0,47,30.10,10.0,ESE,12.7,19.6,N/A,,Clear,110,2013-07-12 16:54:00
12:54 PM,80.1,57.9,47,30.09,10.0,Variable,6.9,-,N/A,,Clear,0,2013-07-12 17:54:00
1:54 PM,81.0,57.0,44,30.08,10.0,East,5.8,-,N/A,,Clear,90,2013-07-12 18:54:00
2:54 PM,82.0,57.9,44,30.07,10.0,SSE,5.8,-,N/A,,Clear,150,2013-07-12 19:54:00
3:54 PM,82.9,57.0,41,30.06,10.0,SE,6.9,-,N/A,,Clear,130,2013-07-12 20:54:00
4:54 PM,82.9,57.0,41,30.04,10.0,ESE,6.9,-,N/A,,Clear,110,2013-07-12 21:54:00
5:54 PM,82.9,55.9,39,30.04,10.0,East,8.1,-,N/A,,Clear,90,2013-07-12 22:54:00
6:54 PM,81.0,59.0,47,30.03,10.0,ESE,5.8,-,N/A,,Clear,110,2013-07-12 23:54:00
7:54 PM,78.1,61.0,56,30.03,10.0,East,5.8,-,N/A,,Clear,100,2013-07-13 00:54:00
8:54 PM,73.9,59.0,59,30.03,10.0,East,6.9,-,N/A,,Clear,100,2013-07-13 01:54:00
9:54 PM,72.0,57.9,61,30.04,10.0,ESE,5.8,-,N/A,,Clear,110,2013-07-13 02:54:00
10:54 PM,70.0,57.9,65,30.04,10.0,ESE,5.8,-,N/A,,Clear,110,2013-07-13 03:54:00
11:54 PM,66.9,57.9,73,30.05,10.0,East,5.8,-,N/A,,Clear,90,2013-07-13 04:54:00